TimeEDT,TemperatureF,Dew PointF,Humidity,Sea Level PressureIn,VisibilityMPH,Wind Direction,Wind SpeedMPH,Gust SpeedMPH,PrecipitationIn,Events,Conditions,WindDirDegrees,DateUTC
12:09 AM,44.6,37.4,76,30.27,10.0,East,4.6,-,N/A,,Clear,80,2013-05-05 04:09:00
12:30 AM,44.6,37.4,76,30.27,10.0,Calm,Calm,-,N/A,,Clear,0,2013-05-05 04:30:00
12:48 AM,42.8,37.4,81,30.26,10.0,Calm,Calm,-,N/A,,Clear,0,2013-05-05 04:48:00
1:09 AM,42.8,37.4,81,30.26,10.0,Calm,Calm,-,N/A,,Clear,0,2013-05-05 05:09:00
1:30 AM,41.0,37.4,87,30.26,10.0,Calm,Calm,-,N/A,,Clear,0,2013-05-05 05:30:00
1:48 AM,41.0,37.4,87,30.26,10.0,Calm,Calm,-,N/A,,Scattered Clouds,0,2013-05-05 05:48:00
2:09 AM,41.0,37.4,87,30.25,10.0,Calm,Calm,-,N/A,,Mostly Cloudy,0,2013-05-05 06:09:00
2:30 AM,42.8,41.0,93,30.25,10.0,Calm,Calm,-,N/A,,Overcast,0,2013-05-05 06:30:00
2:48 AM,42.8,41.0,93,30.24,10.0,East,4.6,-,N/A,,Overcast,80,2013-05-05 06:48:00
3:09 AM,42.8,39.2,87,30.24,10.0,ENE,3.5,-,N/A,,Mostly Cloudy,70,2013-05-05 07:09:00
3:30 AM,42.8,41.0,93,30.24,10.0,East,3.5,-,N/A,,Mostly Cloudy,80,2013-05-05 07:30:00
3:51 AM,44.6,41.0,87,30.25,10.0,ENE,8.1,-,N/A,,Overcast,70,2013-05-05 07:51:00
4:09 AM,44.6,39.2,81,30.25,10.0,ENE,5.8,-,N/A,,Overcast,60,2013-05-05 08:09:00
4:30 AM,44.6,37.4,76,30.25,10.0,East,6.9,-,N/A,,Mostly Cloudy,80,2013-05-05 08:30:00
4:51 AM,44.6,37.4,76,30.25,10.0,ENE,6.9,-,N/A,,Mostly Cloudy,70,2013-05-05 08:51:00
5:09 AM,44.6,37.4,76,30.25,10.0,East,4.6,-,N/A,,Mostly Cloudy,80,2013-05-05 09:09:00
5:30 AM,42.8,37.4,81,30.24,10.0,ENE,6.9,-,N/A,,Scattered Clouds,70,2013-05-05 09:30:00
5:51 AM,41.0,35.6,81,30.24,10.0,East,4.6,-,N/A,,Scattered Clouds,80,2013-05-05 09:51:00
6:09 AM,41.0,35.6,81,30.25,10.0,ENE,3.5,-,N/A,,Scattered Clouds,70,2013-05-05 10:09:00
6:30 AM,41.0,37.4,87,30.26,10.0,ESE,3.5,-,N/A,,Scattered Clouds,120,2013-05-05 10:30:00
6:51 AM,42.8,39.2,87,30.26,10.0,East,3.5,-,N/A,,Overcast,80,2013-05-05 10:51:00
7:09 AM,44.6,37.4,76,30.26,10.0,East,3.5,-,N/A,,Overcast,90,2013-05-05 11:09:00
7:30 AM,44.6,37.4,76,30.27,10.0,East,5.8,-,N/A,,Overcast,80,2013-05-05 11:30:00
7:51 AM,46.4,37.4,71,30.27,10.0,East,12.7,-,N/A,,Overcast,80,2013-05-05 11:51:00
8:09 AM,46.4,37.4,71,30.26,10.0,East,8.1,-,N/A,,Overcast,80,2013-05-05 12:09:00
8:30 AM,46.4,37.4,71,30.27,10.0,East,9.2,-,N/A,,Overcast,80,2013-05-05 12:30:00
8:51 AM,48.2,37.4,66,30.27,10.0,ENE,6.9,-,N/A,,Overcast,70,2013-05-05 12:51:00
9:09 AM,48.2,37.4,66,30.28,10.0,ESE,11.5,-,N/A,,Overcast,110,2013-05-05 13:09:00
9:30 AM,48.2,37.4,66,30.28,10.0,ENE,6.9,-,N/A,,Overcast,60,2013-05-05 13:30:00
9:51 AM,50.0,37.4,62,30.28,10.0,ENE,8.1,-,N/A,,Overcast,70,2013-05-05 13:51:00
10:09 AM,50.0,37.4,62,30.28,10.0,East,9.2,-,N/A,,Overcast,90,2013-05-05 14:09:00
10:30 AM,51.8,37.4,58,30.28,10.0,ESE,11.5,18.4,N/A,,Overcast,110,2013-05-05 14:30:00
10:51 AM,53.6,37.4,54,30.27,10.0,East,10.4,16.1,N/A,,Overcast,100,2013-05-05 14:51:00
11:09 AM,51.8,37.4,58,30.27,10.0,NE,9.2,-,N/A,,Mostly Cloudy,50,2013-05-05 15:09:00
11:30 AM,51.8,37.4,58,30.28,10.0,East,6.9,-,N/A,,Mostly Cloudy,90,2013-05-05 15:30:00
11:51 AM,51.8,37.4,58,30.27,10.0,ESE,10.4,16.1,N/A,,Scattered Clouds,110,2013-05-05 15:51:00
12:12 PM,53.6,39.2,58,30.26,10.0,NE,9.2,-,N/A,,Mostly Cloudy,40,2013-05-05 16:12:00
12:30 PM,55.4,39.2,54,30.26,10.0,East,10.4,-,N/A,,Scattered Clouds,100,2013-05-05 16:30:00
12:51 PM,55.4,39.2,54,30.25,10.0,ENE,6.9,16.1,N/A,,Scattered Clouds,70,2013-05-05 16:51:00
1:12 PM,55.4,41.0,58,30.24,10.0,ENE,5.8,9.2,N/A,,Clear,60,2013-05-05 17:12:00
1:30 PM,57.2,39.2,51,30.24,10.0,SSE,4.6,-,N/A,,Clear,160,2013-05-05 17:30:00
1:51 PM,57.2,39.2,51,30.24,10.0,East,6.9,-,N/A,,Clear,100,2013-05-05 17:51:00
2:12 PM,59.0,37.4,45,30.24,10.0,ESE,11.5,19.6,N/A,,Clear,110,2013-05-05 18:12:00
2:30 PM,59.0,37.4,45,30.23,10.0,ESE,12.7,17.3,N/A,,Clear,110,2013-05-05 18:30:00
2:51 PM,59.0,39.2,48,30.23,10.0,ESE,9.2,16.1,N/A,,Clear,120,2013-05-05 18:51:00
3:12 PM,59.0,39.2,48,30.22,10.0,ESE,11.5,-,N/A,,Clear,110,2013-05-05 19:12:00
3:30 PM,60.8,39.2,45,30.22,10.0,East,11.5,16.1,N/A,,Clear,80,2013-05-05 19:30:00
3:51 PM,59.0,39.2,48,30.21,10.0,ESE,12.7,16.1,N/A,,Clear,110,2013-05-05 19:51:00
4:12 PM,60.8,41.0,48,30.20,10.0,East,13.8,17.3,N/A,,Clear,100,2013-05-05 20:12:00
4:30 PM,60.8,41.0,48,30.20,10.0,East,11.5,17.3,N/A,,Clear,80,2013-05-05 20:30:00
4:51 PM,60.8,41.0,48,30.20,10.0,East,8.1,16.1,N/A,,Clear,100,2013-05-05 20:51:00
5:12 PM,59.0,41.0,51,30.19,10.0,East,11.5,16.1,N/A,,Clear,90,2013-05-05 21:12:00
5:30 PM,60.8,41.0,48,30.18,10.0,East,12.7,19.6,N/A,,Clear,100,2013-05-05 21:30:00
5:51 PM,60.8,41.0,48,30.19,10.0,ESE,11.5,16.1,N/A,,Clear,120,2013-05-05 21:51:00
6:12 PM,60.8,41.0,48,30.19,10.0,East,9.2,-,N/A,,Clear,100,2013-05-05 22:12:00
6:30 PM,59.0,41.0,51,30.19,10.0,East,10.4,-,N/A,,Clear,90,2013-05-05 22:30:00
6:51 PM,59.0,42.8,55,30.19,10.0,East,9.2,-,N/A,,Clear,100,2013-05-05 22:51:00
7:12 PM,57.2,42.8,59,30.19,10.0,East,8.1,-,N/A,,Clear,100,2013-05-05 23:12:00
7:30 PM,55.4,42.8,63,30.20,10.0,ESE,5.8,-,N/A,,Clear,110,2013-05-05 23:30:00
7:51 PM,55.4,42.8,63,30.21,10.0,ESE,5.8,-,N/A,,Clear,110,2013-05-05 23:51:00
8:12 PM,53.6,42.8,67,30.21,10.0,ESE,4.6,-,N/A,,Clear,110,2013-05-06 00:12:00
8:30 PM,51.8,42.8,71,30.21,10.0,ESE,4.6,-,N/A,,Clear,110,2013-05-06 00:30:00
8:51 PM,50.0,42.8,76,30.21,10.0,ESE,3.5,-,N/A,,Clear,110,2013-05-06 00:51:00
9:12 PM,46.4,42.8,87,30.21,10.0,ESE,3.5,-,N/A,,Clear,110,2013-05-06 01:12:00
9:33 PM,44.6,41.0,87,30.21,10.0,East,4.6,-,N/A,,Clear,100,2013-05-06 01:33:00
9:51 PM,44.6,41.0,87,30.21,10.0,East,5.8,-,N/A,,Clear,90,2013-05-06 01:51:00
10:33 PM,48.2,42.8,82,30.21,10.0,Calm,Calm,-,N/A,,Clear,0,2013-05-06 02:33:00
10:51 PM,46.4,42.8,87,30.21,10.0,ENE,3.5,-,N/A,,Clear,60,2013-05-06 02:51:00
11:12 PM,44.6,42.8,93,30.21,10.0,ESE,3.5,-,N/A,,Clear,120,2013-05-06 03:12:00
11:33 PM,44.6,42.8,93,30.22,10.0,Calm,Calm,-,N/A,,Clear,0,2013-05-06 03:33:00
11:51 PM,42.8,41.0,93,30.21,10.0,Calm,Calm,-,N/A,,Clear,0,2013-05-06 03:51:00